CCA8303 ZSPD-ZUGY

Flight info

Callsign CCA8303
Flight time 2h 30m
Altitude 32100
Route SASAN R343 ESBAG W581 SNQ W546 OREVO W164 VILID V65 IKUBA V106 GUGAM A581 MEMAG
Aircraft B737/M-SDE3FGHIRWY/LB1

Departure

Time 2026-05-07 13:29
Airport Shanghai Pudong International Airport (ZSPD)

Arrival

Time 2026-05-07 15:59
Airport Guiyang Longdongbao International Airport (ZUGY)
Time Latitude Longitude Altitude Speed Heading
2026-05-07 13:09 31.13801 121.80174 21 ft 0 kts 71°
2026-05-07 13:19 31.13800 121.80172 21 ft 1 kts 71°
2026-05-07 13:20 31.13796 121.80155 21 ft 2 kts 73°
2026-05-07 13:20 31.13791 121.80137 21 ft 2 kts 75°
2026-05-07 13:20 31.13787 121.80119 21 ft 2 kts 76°
2026-05-07 13:20 31.13783 121.80100 21 ft 2 kts 79°
2026-05-07 13:21 31.13781 121.80082 21 ft 2 kts 84°
2026-05-07 13:21 31.13780 121.80063 21 ft 2 kts 95°
2026-05-07 13:21 31.13783 121.80046 21 ft 2 kts 122°
2026-05-07 13:21 31.13792 121.80036 21 ft 2 kts 162°
2026-05-07 13:22 31.13803 121.80032 21 ft 2 kts 162°
2026-05-07 13:25 31.13763 121.80046 21 ft 16 kts 163°
2026-05-07 13:25 31.13658 121.80084 21 ft 29 kts 164°
2026-05-07 13:25 31.13468 121.80151 21 ft 28 kts 160°
2026-05-07 13:25 31.13237 121.80244 21 ft 25 kts 162°
2026-05-07 13:26 31.13132 121.80283 21 ft 23 kts 162°
2026-05-07 13:26 31.12965 121.80348 21 ft 27 kts 161°
2026-05-07 13:26 31.12832 121.80393 21 ft 9 kts 199°
2026-05-07 13:26 31.12811 121.80306 21 ft 18 kts 260°
2026-05-07 13:27 31.12781 121.80159 21 ft 18 kts 253°
2026-05-07 13:27 31.12742 121.80023 21 ft 17 kts 251°
2026-05-07 13:27 31.12714 121.79908 21 ft 9 kts 280°
2026-05-07 13:27 31.12756 121.79870 21 ft 0 kts 341°
2026-05-07 13:28 31.12758 121.79869 21 ft 4 kts 341°
2026-05-07 13:28 31.12983 121.79784 21 ft 65 kts 342°
2026-05-07 13:28 31.13598 121.79553 24 ft 118 kts 343°
2026-05-07 13:29 31.14456 121.79231 378 ft 131 kts 343°
2026-05-07 13:29 31.15272 121.78949 923 ft 136 kts 344°
2026-05-07 13:29 31.16183 121.78599 1476 ft 143 kts 339°
2026-05-07 13:29 31.17159 121.78194 1853 ft 157 kts 340°
2026-05-07 13:30 31.18216 121.77766 2236 ft 168 kts 339°
2026-05-07 13:30 31.19398 121.77282 2453 ft 190 kts 340°
2026-05-07 13:30 31.20712 121.76747 2671 ft 209 kts 340°
2026-05-07 13:30 31.22121 121.76173 2969 ft 222 kts 340°
2026-05-07 13:31 31.23642 121.75554 3282 ft 241 kts 340°
2026-05-07 13:31 31.25268 121.74892 3881 ft 251 kts 339°
2026-05-07 13:31 31.26909 121.74227 4677 ft 254 kts 338°
2026-05-07 13:31 31.28596 121.73545 5415 ft 259 kts 336°
2026-05-07 13:32 31.30337 121.72832 6132 ft 266 kts 336°
2026-05-07 13:32 31.32088 121.72096 6939 ft 267 kts 332°
2026-05-07 13:32 31.33567 121.70900 7749 ft 260 kts 308°
2026-05-07 13:32 31.34437 121.69084 8598 ft 256 kts 283°
2026-05-07 13:33 31.34510 121.67024 9453 ft 257 kts 259°
2026-05-07 13:33 31.33924 121.65045 10314 ft 260 kts 250°
2026-05-07 13:33 31.33380 121.63008 11031 ft 267 kts 257°
2026-05-07 13:33 31.33012 121.60803 11459 ft 285 kts 262°
2026-05-07 13:34 31.32728 121.58428 11808 ft 305 kts 261°
2026-05-07 13:34 31.31886 121.53353 12973 ft 324 kts 259°
2026-05-07 13:34 31.31440 121.50751 13738 ft 328 kts 259°
2026-05-07 13:35 31.30998 121.48132 14495 ft 331 kts 260°
2026-05-07 13:35 31.30553 121.45477 15291 ft 334 kts 260°
2026-05-07 13:35 31.30106 121.42802 16049 ft 337 kts 260°
2026-05-07 13:35 31.29655 121.40099 16780 ft 340 kts 260°
2026-05-07 13:36 31.29201 121.37371 17490 ft 343 kts 260°
2026-05-07 13:36 31.28933 121.34590 18152 ft 346 kts 270°
2026-05-07 13:36 31.29193 121.31782 18794 ft 351 kts 281°
2026-05-07 13:36 31.29825 121.29000 19412 ft 355 kts 284°
2026-05-07 13:37 31.30583 121.26240 20002 ft 359 kts 287°
2026-05-07 13:37 31.31424 121.23466 20584 ft 363 kts 287°
2026-05-07 13:37 31.32267 121.20677 21138 ft 366 kts 287°
2026-05-07 13:37 31.33113 121.17857 21675 ft 369 kts 287°
2026-05-07 13:38 31.33967 121.15011 22191 ft 372 kts 287°
2026-05-07 13:38 31.34827 121.12138 22686 ft 375 kts 287°
2026-05-07 13:38 31.35694 121.09248 23159 ft 378 kts 287°
2026-05-07 13:38 31.36580 121.06340 23619 ft 381 kts 287°
2026-05-07 13:39 31.37459 121.03446 24052 ft 384 kts 287°
2026-05-07 13:39 31.38354 121.00489 24487 ft 386 kts 287°
2026-05-07 13:39 31.39254 120.97513 24913 ft 388 kts 287°
2026-05-07 13:39 31.40154 120.94532 25341 ft 390 kts 287°
2026-05-07 13:40 31.41059 120.91530 25763 ft 391 kts 287°
2026-05-07 13:40 31.41965 120.88521 26168 ft 393 kts 287°
2026-05-07 13:40 31.42875 120.85498 26563 ft 395 kts 287°
2026-05-07 13:40 31.43787 120.82463 26942 ft 396 kts 287°
2026-05-07 13:41 31.44703 120.79415 27304 ft 398 kts 287°
2026-05-07 13:41 31.45624 120.76350 27665 ft 399 kts 287°
2026-05-07 13:41 31.46548 120.73270 28011 ft 401 kts 287°
2026-05-07 13:41 31.47492 120.70194 28351 ft 403 kts 287°
2026-05-07 13:42 31.48439 120.67100 28686 ft 404 kts 287°
2026-05-07 13:42 31.49394 120.63999 29000 ft 405 kts 287°
2026-05-07 13:42 31.50337 120.60885 29413 ft 404 kts 287°
2026-05-07 13:42 31.51263 120.57798 29919 ft 401 kts 287°
2026-05-07 13:43 31.52182 120.54720 30395 ft 398 kts 286°
2026-05-07 13:43 31.53092 120.51664 30852 ft 396 kts 286°
2026-05-07 13:43 31.53996 120.48624 31326 ft 394 kts 286°
2026-05-07 13:43 31.54897 120.45590 31743 ft 393 kts 286°
2026-05-07 13:44 31.55796 120.42560 32059 ft 395 kts 286°
2026-05-07 13:44 31.57618 120.36418 32153 ft 401 kts 286°
2026-05-07 13:45 31.58871 120.30094 32154 ft 397 kts 276°
2026-05-07 13:45 31.59336 120.23645 32153 ft 397 kts 273°
2026-05-07 13:46 31.59656 120.17234 32153 ft 396 kts 272°
2026-05-07 13:46 31.59970 120.10736 32153 ft 396 kts 272°
2026-05-07 13:47 31.60284 120.04286 32153 ft 396 kts 273°
2026-05-07 13:47 31.60631 119.97874 32159 ft 395 kts 273°
2026-05-07 13:48 31.60937 119.91464 32172 ft 393 kts 272°
2026-05-07 13:48 31.61230 119.85055 32178 ft 394 kts 272°
2026-05-07 13:49 31.61519 119.78642 32178 ft 393 kts 272°
2026-05-07 13:49 31.61806 119.72237 32186 ft 392 kts 273°
2026-05-07 13:50 31.62101 119.65851 32192 ft 392 kts 274°
2026-05-07 13:50 31.62648 119.59483 32190 ft 392 kts 276°
2026-05-07 13:51 31.63229 119.53120 32190 ft 392 kts 275°
2026-05-07 13:51 31.63783 119.46755 32199 ft 391 kts 275°
2026-05-07 13:52 31.64324 119.40401 32204 ft 391 kts 275°
2026-05-07 13:52 31.64866 119.34052 32204 ft 391 kts 276°
2026-05-07 13:53 31.65449 119.27711 32208 ft 391 kts 276°
2026-05-07 13:53 31.65989 119.21370 32211 ft 390 kts 276°
2026-05-07 13:54 31.66513 119.15032 32211 ft 390 kts 276°
2026-05-07 13:54 31.67032 119.08692 32211 ft 390 kts 276°
2026-05-07 13:55 31.67547 119.02387 32212 ft 390 kts 275°
2026-05-07 13:55 31.67913 118.96039 32212 ft 391 kts 270°
2026-05-07 13:56 31.67648 118.89667 32212 ft 391 kts 268°
2026-05-07 13:56 31.67298 118.83297 32212 ft 391 kts 268°
2026-05-07 13:57 31.66952 118.76928 32212 ft 391 kts 268°
2026-05-07 13:57 31.66623 118.70559 32212 ft 391 kts 269°
2026-05-07 13:58 31.66616 118.64189 32212 ft 390 kts 271°
2026-05-07 13:58 31.66659 118.57822 32213 ft 390 kts 271°
2026-05-07 13:59 31.66703 118.51460 32214 ft 390 kts 271°
2026-05-07 13:59 31.66720 118.45097 32214 ft 390 kts 271°
2026-05-07 14:00 31.66715 118.38742 32215 ft 389 kts 271°
2026-05-07 14:00 31.66702 118.32389 32218 ft 388 kts 271°
2026-05-07 14:01 31.66687 118.26077 32220 ft 388 kts 271°
2026-05-07 14:01 31.66672 118.19737 32220 ft 388 kts 271°
2026-05-07 14:02 31.66348 118.13410 32220 ft 389 kts 265°
2026-05-07 14:02 31.65696 118.07122 32227 ft 387 kts 265°
2026-05-07 14:03 31.65069 118.00855 32228 ft 387 kts 265°
2026-05-07 14:03 31.64456 117.94566 32228 ft 387 kts 266°
2026-05-07 14:04 31.63884 117.88296 32228 ft 387 kts 265°
2026-05-07 14:04 31.63275 117.82019 32232 ft 386 kts 265°
2026-05-07 14:05 31.62659 117.75799 32232 ft 386 kts 265°
2026-05-07 14:05 31.62032 117.69501 32232 ft 386 kts 265°
2026-05-07 14:06 31.61411 117.63284 32235 ft 386 kts 265°
2026-05-07 14:06 31.60772 117.57049 32238 ft 385 kts 264°
2026-05-07 14:07 31.59731 117.50865 32237 ft 387 kts 260°
2026-05-07 14:07 31.58583 117.44703 32237 ft 386 kts 261°
2026-05-07 14:08 31.57467 117.38529 32239 ft 386 kts 261°
2026-05-07 14:08 31.56326 117.32391 32240 ft 387 kts 258°
2026-05-07 14:09 31.54305 117.26497 32239 ft 392 kts 248°
2026-05-07 14:09 31.51661 117.20894 32239 ft 393 kts 246°
2026-05-07 14:10 31.48937 117.15371 32239 ft 394 kts 245°
2026-05-07 14:10 31.46181 117.09835 32239 ft 394 kts 245°
2026-05-07 14:11 31.43415 117.04301 32237 ft 394 kts 245°
2026-05-07 14:11 31.40637 116.98761 32245 ft 394 kts 245°
2026-05-07 14:12 31.37870 116.93237 32261 ft 393 kts 246°
2026-05-07 14:12 31.35121 116.87692 32265 ft 394 kts 245°
2026-05-07 14:13 31.32824 116.83096 32265 ft 394 kts 245°
2026-05-07 14:13 31.30053 116.77571 32264 ft 394 kts 245°
2026-05-07 14:14 31.27274 116.72045 32263 ft 394 kts 245°
2026-05-07 14:14 31.24490 116.66519 32262 ft 394 kts 245°
2026-05-07 14:15 31.21251 116.60102 32261 ft 394 kts 245°
2026-05-07 14:15 31.18912 116.55475 32259 ft 395 kts 245°
2026-05-07 14:16 31.16121 116.49963 32259 ft 395 kts 245°
2026-05-07 14:16 31.13324 116.44446 32256 ft 395 kts 245°
2026-05-07 14:17 31.10540 116.38962 32256 ft 395 kts 245°
2026-05-07 14:17 31.07738 116.33450 32252 ft 394 kts 245°
2026-05-07 14:18 31.04938 116.27950 32251 ft 394 kts 245°
2026-05-07 14:18 31.02136 116.22451 32251 ft 395 kts 245°
2026-05-07 14:19 30.99352 116.16946 32247 ft 394 kts 245°
2026-05-07 14:19 30.96543 116.11452 32244 ft 394 kts 245°
2026-05-07 14:20 30.93725 116.05965 32238 ft 394 kts 245°
2026-05-07 14:20 30.90924 116.00518 32230 ft 394 kts 244°
2026-05-07 14:21 30.88105 115.95039 32227 ft 394 kts 244°
2026-05-07 14:21 30.85791 115.89322 32226 ft 387 kts 256°
2026-05-07 14:22 30.84445 115.83259 32223 ft 388 kts 260°
2026-05-07 14:22 30.83291 115.77132 32221 ft 387 kts 261°
2026-05-07 14:23 30.82169 115.71023 32220 ft 387 kts 261°
2026-05-07 14:23 30.81053 115.64891 32220 ft 387 kts 261°
2026-05-07 14:24 30.79941 115.58766 32218 ft 387 kts 261°
2026-05-07 14:24 30.78828 115.52639 32217 ft 387 kts 261°
2026-05-07 14:25 30.77755 115.46562 32216 ft 386 kts 261°
2026-05-07 14:25 30.76670 115.40448 32215 ft 387 kts 261°
2026-05-07 14:26 30.75569 115.34317 32214 ft 387 kts 261°
2026-05-07 14:26 30.74462 115.28195 32213 ft 386 kts 261°
2026-05-07 14:28 30.71149 115.10029 32212 ft 386 kts 261°
2026-05-07 14:28 30.70030 115.03926 32212 ft 386 kts 261°
2026-05-07 14:29 30.68914 114.97858 32212 ft 386 kts 261°
2026-05-07 14:29 30.67788 114.91755 32212 ft 386 kts 261°
2026-05-07 14:30 30.66660 114.85658 32212 ft 386 kts 261°
2026-05-07 14:30 30.65529 114.79561 32212 ft 385 kts 261°
2026-05-07 14:31 30.64396 114.73471 32212 ft 386 kts 261°
2026-05-07 14:31 30.63261 114.67383 32212 ft 386 kts 261°
2026-05-07 14:32 30.62123 114.61297 32212 ft 386 kts 261°
2026-05-07 14:32 30.60999 114.55253 32212 ft 385 kts 261°
2026-05-07 14:33 30.59866 114.49128 32212 ft 385 kts 261°
2026-05-07 14:33 30.58726 114.43097 32212 ft 385 kts 260°
2026-05-07 14:34 30.57570 114.37024 32212 ft 386 kts 260°
2026-05-07 14:34 30.56408 114.30933 32212 ft 385 kts 260°
2026-05-07 14:35 30.55247 114.24858 32212 ft 385 kts 260°
2026-05-07 14:35 30.53990 114.18858 32212 ft 387 kts 256°
2026-05-07 14:36 30.52186 114.12965 32213 ft 388 kts 253°
2026-05-07 14:36 30.50264 114.07109 32213 ft 389 kts 253°
2026-05-07 14:37 30.48364 114.01247 32215 ft 389 kts 254°
2026-05-07 14:37 30.45521 113.92432 32215 ft 389 kts 254°
2026-05-07 14:38 30.43627 113.86555 32216 ft 389 kts 254°
2026-05-07 14:38 30.41746 113.80678 32217 ft 389 kts 255°
2026-05-07 14:39 30.39878 113.74795 32219 ft 389 kts 254°
2026-05-07 14:39 30.37990 113.68909 32220 ft 389 kts 254°
2026-05-07 14:40 30.36098 113.63037 32221 ft 389 kts 254°
2026-05-07 14:40 30.34199 113.57159 32222 ft 389 kts 254°
2026-05-07 14:41 30.32325 113.51321 32223 ft 389 kts 254°
2026-05-07 14:41 30.30420 113.45414 32225 ft 390 kts 254°
2026-05-07 14:42 30.28521 113.39581 32227 ft 390 kts 254°
2026-05-07 14:42 30.26601 113.33705 32226 ft 392 kts 253°
2026-05-07 14:43 30.24668 113.27804 32224 ft 393 kts 253°
2026-05-07 14:43 30.22730 113.21889 32222 ft 393 kts 253°
2026-05-07 14:44 30.20302 113.16179 32220 ft 399 kts 244°
2026-05-07 14:44 30.17344 113.10750 32219 ft 400 kts 243°
2026-05-07 14:45 30.14348 113.05340 32217 ft 400 kts 243°
2026-05-07 14:45 30.11347 112.99921 32216 ft 401 kts 243°
2026-05-07 14:46 30.08340 112.94495 32214 ft 401 kts 242°
2026-05-07 14:46 30.05329 112.89068 32212 ft 401 kts 242°
2026-05-07 14:47 30.02323 112.83632 32210 ft 402 kts 243°
2026-05-07 14:47 29.99317 112.78168 32208 ft 403 kts 242°
2026-05-07 14:48 29.96302 112.72724 32208 ft 403 kts 242°
2026-05-07 14:48 29.93278 112.67281 32207 ft 403 kts 242°
2026-05-07 14:49 29.90288 112.61882 32207 ft 402 kts 243°
2026-05-07 14:49 29.87269 112.56443 32203 ft 404 kts 242°
2026-05-07 14:50 29.84219 112.50988 32201 ft 405 kts 242°
2026-05-07 14:50 29.81182 112.45571 32208 ft 398 kts 243°
2026-05-07 14:51 29.78189 112.40235 32212 ft 395 kts 243°
2026-05-07 14:51 29.75208 112.34927 32212 ft 395 kts 243°
2026-05-07 14:52 29.72217 112.29613 32212 ft 395 kts 243°
2026-05-07 14:52 29.69213 112.24315 32212 ft 395 kts 243°
2026-05-07 14:53 29.66206 112.19018 32212 ft 395 kts 243°
2026-05-07 14:53 29.63193 112.13717 32212 ft 395 kts 243°
2026-05-07 14:54 29.60187 112.08433 32212 ft 395 kts 243°
2026-05-07 14:54 29.57174 112.03142 32212 ft 395 kts 243°
2026-05-07 14:55 29.54193 111.97891 32212 ft 395 kts 243°
2026-05-07 14:55 29.51217 111.92591 32212 ft 395 kts 243°
2026-05-07 14:56 29.48215 111.87306 32212 ft 395 kts 243°
2026-05-07 14:56 29.45195 111.82025 32212 ft 395 kts 243°
2026-05-07 14:57 29.42174 111.76754 32212 ft 395 kts 243°
2026-05-07 14:57 29.39155 111.71493 32212 ft 395 kts 243°
2026-05-07 14:58 29.36163 111.66198 32212 ft 393 kts 246°
2026-05-07 14:58 29.33866 111.60573 32212 ft 390 kts 252°
2026-05-07 14:59 29.31848 111.54808 32212 ft 389 kts 252°
2026-05-07 14:59 29.29836 111.49047 32212 ft 389 kts 252°
2026-05-07 15:00 29.27835 111.43327 32212 ft 389 kts 252°
2026-05-07 15:00 29.25821 111.37575 32212 ft 389 kts 252°
2026-05-07 15:01 29.23804 111.31821 32212 ft 389 kts 252°
2026-05-07 15:01 29.21801 111.26066 32212 ft 389 kts 253°
2026-05-07 15:02 29.19806 111.20314 32212 ft 389 kts 252°
2026-05-07 15:02 29.17797 111.14567 32212 ft 389 kts 252°
2026-05-07 15:03 29.15779 111.08818 32212 ft 389 kts 252°
2026-05-07 15:03 29.13778 111.03072 32212 ft 389 kts 252°
2026-05-07 15:04 29.11759 110.97328 32212 ft 389 kts 252°
2026-05-07 15:04 29.09727 110.91591 32212 ft 389 kts 252°
2026-05-07 15:05 29.07693 110.85860 32212 ft 389 kts 252°
2026-05-07 15:05 29.05655 110.80128 32212 ft 389 kts 252°
2026-05-07 15:06 29.03620 110.74404 32212 ft 389 kts 252°
2026-05-07 15:06 29.01599 110.68668 32212 ft 389 kts 252°
2026-05-07 15:07 28.99584 110.62929 32212 ft 389 kts 252°
2026-05-07 15:07 28.97568 110.57202 32212 ft 389 kts 252°
2026-05-07 15:08 28.95545 110.51464 32212 ft 389 kts 252°
2026-05-07 15:08 28.93535 110.45775 32212 ft 389 kts 252°
2026-05-07 15:09 28.91834 110.40965 32212 ft 389 kts 252°
2026-05-07 15:09 28.89826 110.35274 32212 ft 389 kts 253°
2026-05-07 15:10 28.87827 110.29542 32212 ft 389 kts 252°
2026-05-07 15:10 28.85811 110.23815 32212 ft 389 kts 252°
2026-05-07 15:11 28.83789 110.18096 32212 ft 389 kts 252°
2026-05-07 15:11 28.81761 110.12372 32214 ft 390 kts 252°
2026-05-07 15:12 28.79709 110.06602 32218 ft 394 kts 251°
2026-05-07 15:12 28.77651 110.00822 32217 ft 393 kts 251°
2026-05-07 15:13 28.75615 109.95042 32217 ft 393 kts 251°
2026-05-07 15:13 28.73554 109.89270 32220 ft 393 kts 251°
2026-05-07 15:14 28.71485 109.83505 32220 ft 393 kts 251°
2026-05-07 15:14 28.69414 109.77745 32219 ft 393 kts 251°
2026-05-07 15:15 28.67343 109.71991 32219 ft 393 kts 251°
2026-05-07 15:15 28.65270 109.66228 32222 ft 393 kts 251°
2026-05-07 15:16 28.63295 109.60431 32220 ft 393 kts 252°
2026-05-07 15:16 28.61312 109.54642 32218 ft 393 kts 252°
2026-05-07 15:17 28.59322 109.48850 32218 ft 393 kts 252°
2026-05-07 15:17 28.57268 109.43133 32220 ft 394 kts 249°
2026-05-07 15:18 28.54799 109.37542 32221 ft 395 kts 247°
2026-05-07 15:18 28.52311 109.31981 32221 ft 395 kts 248°
2026-05-07 15:19 28.49846 109.26411 32220 ft 395 kts 248°
2026-05-07 15:19 28.47385 109.20838 32221 ft 394 kts 248°
2026-05-07 15:20 28.44921 109.15261 32220 ft 394 kts 248°
2026-05-07 15:20 28.42455 109.09700 32220 ft 395 kts 248°
2026-05-07 15:21 28.39976 109.04133 32219 ft 395 kts 248°
2026-05-07 15:21 28.37497 108.98573 32219 ft 395 kts 248°
2026-05-07 15:22 28.35017 108.93021 32222 ft 394 kts 248°
2026-05-07 15:22 28.32535 108.87471 32222 ft 394 kts 248°
2026-05-07 15:23 28.30048 108.81918 32220 ft 395 kts 248°
2026-05-07 15:23 28.27593 108.76385 32212 ft 395 kts 248°
2026-05-07 15:24 28.25124 108.70824 32217 ft 394 kts 248°
2026-05-07 15:24 28.22646 108.65274 32219 ft 394 kts 248°
2026-05-07 15:25 28.20159 108.59722 32214 ft 395 kts 248°
2026-05-07 15:25 28.17668 108.54172 32212 ft 395 kts 247°
2026-05-07 15:26 28.15174 108.48626 32217 ft 394 kts 247°
2026-05-07 15:26 28.12683 108.43092 32221 ft 394 kts 247°
2026-05-07 15:27 28.10179 108.37540 32201 ft 398 kts 247°
2026-05-07 15:27 28.07654 108.31948 32187 ft 398 kts 247°
2026-05-07 15:28 28.05134 108.26373 32186 ft 397 kts 247°
2026-05-07 15:28 28.02615 108.20808 32189 ft 397 kts 247°
2026-05-07 15:29 28.00089 108.15237 32186 ft 398 kts 247°
2026-05-07 15:29 27.97562 108.09665 32183 ft 398 kts 247°
2026-05-07 15:30 27.95052 108.04094 32183 ft 398 kts 247°
2026-05-07 15:30 27.92519 107.98532 32183 ft 398 kts 247°
2026-05-07 15:31 27.89976 107.92966 32183 ft 398 kts 247°
2026-05-07 15:31 27.87434 107.87414 32182 ft 398 kts 247°
2026-05-07 15:32 27.84905 107.81892 32182 ft 398 kts 247°
2026-05-07 15:32 27.82366 107.76338 32182 ft 398 kts 247°
2026-05-07 15:33 27.79877 107.70758 32182 ft 398 kts 248°
2026-05-07 15:33 27.77385 107.65184 32182 ft 398 kts 248°
2026-05-07 15:34 27.74889 107.59610 32182 ft 398 kts 248°
2026-05-07 15:34 27.72394 107.54043 32183 ft 398 kts 248°
2026-05-07 15:35 27.69930 107.48457 32182 ft 397 kts 248°
2026-05-07 15:35 27.67437 107.42889 32183 ft 398 kts 247°
2026-05-07 15:36 27.64936 107.37333 32182 ft 398 kts 247°
2026-05-07 15:36 27.62427 107.31770 32182 ft 398 kts 247°
2026-05-07 15:37 27.59920 107.26215 32183 ft 398 kts 247°
2026-05-07 15:37 27.57413 107.20659 32183 ft 397 kts 247°
2026-05-07 15:38 27.54918 107.15105 32182 ft 397 kts 247°
2026-05-07 15:38 27.52407 107.09552 32182 ft 397 kts 247°
2026-05-07 15:39 27.49881 107.04013 32180 ft 399 kts 245°
2026-05-07 15:39 27.48167 107.01519 32182 ft 409 kts 229°
2026-05-07 15:39 27.45813 106.99657 32183 ft 423 kts 213°
2026-05-07 15:40 27.42968 106.98594 32182 ft 441 kts 198°
2026-05-07 15:40 27.39848 106.98427 32183 ft 459 kts 184°
2026-05-07 15:40 27.33450 106.99265 31669 ft 460 kts 184°
2026-05-07 15:41 27.30276 106.99563 30961 ft 456 kts 185°
2026-05-07 15:41 27.27127 106.99776 30354 ft 451 kts 186°
2026-05-07 15:41 27.24010 106.99942 29837 ft 445 kts 185°
2026-05-07 15:41 27.20932 107.00103 29269 ft 440 kts 184°
2026-05-07 15:42 27.17893 107.00274 28685 ft 436 kts 184°
2026-05-07 15:42 27.14874 107.00441 28100 ft 431 kts 184°
2026-05-07 15:42 27.11894 107.00603 27518 ft 427 kts 184°
2026-05-07 15:42 27.08978 107.00760 26946 ft 423 kts 184°
2026-05-07 15:43 27.06054 107.00915 26370 ft 419 kts 184°
2026-05-07 15:43 27.03154 107.01069 25797 ft 415 kts 184°
2026-05-07 15:43 27.00290 107.01220 25229 ft 410 kts 184°
2026-05-07 15:43 26.97452 107.01369 24665 ft 406 kts 185°
2026-05-07 15:44 26.94639 107.01517 24103 ft 403 kts 184°
2026-05-07 15:44 26.91856 107.01663 23545 ft 399 kts 184°
2026-05-07 15:44 26.89087 107.01808 22987 ft 396 kts 184°
2026-05-07 15:44 26.86345 107.01952 22432 ft 393 kts 184°
2026-05-07 15:45 26.83651 107.01862 21877 ft 381 kts 197°
2026-05-07 15:45 26.81211 107.00899 21370 ft 367 kts 211°
2026-05-07 15:45 26.78931 106.99614 20714 ft 366 kts 213°
2026-05-07 15:45 26.76730 106.98211 20151 ft 363 kts 216°
2026-05-07 15:46 26.72512 106.95171 19044 ft 358 kts 218°
2026-05-07 15:46 26.70441 106.93629 18494 ft 356 kts 218°
2026-05-07 15:46 26.68386 106.92092 17947 ft 354 kts 218°
2026-05-07 15:47 26.66347 106.90562 17402 ft 352 kts 218°
2026-05-07 15:47 26.64318 106.89038 16856 ft 350 kts 218°
2026-05-07 15:47 26.62309 106.87528 16314 ft 347 kts 218°
2026-05-07 15:47 26.60317 106.86030 15771 ft 344 kts 218°
2026-05-07 15:48 26.58337 106.84541 15230 ft 342 kts 218°
2026-05-07 15:48 26.56377 106.83051 14689 ft 339 kts 219°
2026-05-07 15:48 26.54444 106.81583 14153 ft 336 kts 218°
2026-05-07 15:48 26.52515 106.80125 13614 ft 333 kts 218°
2026-05-07 15:49 26.50602 106.78683 13076 ft 330 kts 218°
2026-05-07 15:49 26.48709 106.77259 12528 ft 327 kts 217°
2026-05-07 15:49 26.46826 106.75845 11947 ft 326 kts 217°
2026-05-07 15:49 26.44952 106.74439 11380 ft 323 kts 216°
2026-05-07 15:50 26.43090 106.73043 10826 ft 321 kts 216°
2026-05-07 15:50 26.41251 106.71665 10350 ft 316 kts 216°
2026-05-07 15:50 26.39463 106.70325 10256 ft 304 kts 216°
2026-05-07 15:50 26.37739 106.69035 10233 ft 292 kts 216°
2026-05-07 15:51 26.36097 106.67805 10216 ft 275 kts 216°
2026-05-07 15:51 26.34544 106.66642 10075 ft 263 kts 216°
2026-05-07 15:51 26.33080 106.65546 9984 ft 251 kts 216°
2026-05-07 15:51 26.31611 106.64599 9897 ft 240 kts 201°
2026-05-07 15:52 26.29963 106.64569 9723 ft 239 kts 165°
2026-05-07 15:52 26.28633 106.65667 9500 ft 244 kts 129°
2026-05-07 15:52 26.28140 106.67455 9247 ft 249 kts 93°
2026-05-07 15:52 26.28485 106.69371 8819 ft 257 kts 77°
2026-05-07 15:53 26.28901 106.71270 8483 ft 252 kts 85°
2026-05-07 15:53 26.29030 106.73171 8166 ft 239 kts 92°
2026-05-07 15:53 26.29309 106.74961 7838 ft 230 kts 66°
2026-05-07 15:53 26.30415 106.76148 7503 ft 227 kts 27°
2026-05-07 15:54 26.31947 106.76523 7232 ft 219 kts 10°
2026-05-07 15:54 26.33427 106.76687 7050 ft 206 kts
2026-05-07 15:54 26.34765 106.76865 6970 ft 185 kts 11°
2026-05-07 15:54 26.35955 106.77061 6906 ft 164 kts 12°
2026-05-07 15:55 26.37055 106.77259 6844 ft 157 kts 13°
2026-05-07 15:55 26.38143 106.77462 6585 ft 160 kts 13°
2026-05-07 15:55 26.39222 106.77667 6343 ft 156 kts 14°
2026-05-07 15:55 26.40275 106.77869 6130 ft 151 kts 14°
2026-05-07 15:56 26.41310 106.78068 5933 ft 150 kts 14°
2026-05-07 15:56 26.42334 106.78267 5735 ft 149 kts 14°
2026-05-07 15:56 26.43348 106.78463 5539 ft 147 kts 14°
2026-05-07 15:56 26.44012 106.78592 5410 ft 146 kts 14°
2026-05-07 15:57 26.45347 106.78851 5151 ft 145 kts 13°
2026-05-07 15:57 26.46008 106.78980 5024 ft 146 kts 12°
2026-05-07 15:57 26.47006 106.79173 4830 ft 144 kts 12°
2026-05-07 15:57 26.47987 106.79356 4636 ft 141 kts 12°
2026-05-07 15:58 26.48942 106.79525 4451 ft 137 kts 14°
2026-05-07 15:58 26.49851 106.79705 4247 ft 131 kts 18°
2026-05-07 15:58 26.50744 106.79894 4085 ft 130 kts 17°
2026-05-07 15:58 26.51658 106.80079 3939 ft 136 kts 15°
2026-05-07 15:59 26.52587 106.80256 3761 ft 134 kts 15°
2026-05-07 15:59 26.53403 106.80419 3745 ft 92 kts 10°
2026-05-07 15:59 26.53805 106.80498 3745 ft 23 kts 10°
2026-05-07 15:59 26.53958 106.80496 3745 ft 22 kts 355°
2026-05-07 16:00 26.54094 106.80467 3745 ft 16 kts 341°
2026-05-07 16:00 26.54182 106.80412 3745 ft 8 kts 287°
2026-05-07 16:00 26.54187 106.80313 3745 ft 21 kts 274°
2026-05-07 16:00 26.54215 106.80134 3745 ft 23 kts 282°
2026-05-07 16:01 26.54250 106.79966 3745 ft 16 kts 276°
2026-05-07 16:01 26.54270 106.79923 3745 ft 6 kts 331°
2026-05-07 16:01 26.54311 106.79893 3745 ft 5 kts 324°
2026-05-07 16:01 26.54333 106.79876 3745 ft 2 kts 325°
2026-05-07 16:02 26.54344 106.79867 3745 ft 2 kts 324°
2026-05-07 16:02 26.54347 106.79865 3745 ft 0 kts 325°